Location: Dompnac
(44.5644°N, 4.1026°E)
Time: 00:41:14
(UTC+00:00)

Cosmos 2082 Rocket - Pass Details

Date: 21 June 2021
Orbit: 832 x 854 km, 71.0° (Epoch: 30 July)

Event Time Altitude Azimuth Distance (km) Brightness Sun altitude
Rises 02:48:22 0° 170° (S) 3,363 5.0 -10.2°
Reaches altitude 10° 02:51:07 10° 159° (SSE) 2,433 4.3 -9.9°
Maximum altitude 02:55:44 27° 103° (ESE) 1,542 3.9 -9.3°
Drops below altitude 10° 03:00:22 10° 47° (NE) 2,450 6.3 -8.7°
Sets 03:03:08 0° 36° (NE) 3,391 7.5 -8.4°
